Thermopolis, WY

7:24 PM MDT on May 22, 2017 (GMT -0600)
Thermopolis

Weather History for KTBX - November, 2013

Change the Weather History Date:

Friday, November 1, 2013

  Actual Average (KWRL) Record (KWRL)
Temperature  
Mean Temperature 32 °F -  
Max Temperature 37 °F 51 °F 75 °F (1988)
Min Temperature 28 °F 24 °F 8 °F (1984)
Degree Days  
Heating Degree Days 32    
Moisture  
Dew Point 24 °F    
Average Humidity 69    
Maximum Humidity 93    
Minimum Humidity 56    
Precipitation  
Precipitation 0.00 in - - ()
Sea Level Pressure  
Sea Level Pressure 30.20 in    
Wind  
Wind Speed 14 mph (NE)    
Max Wind Speed 26 mph    
Max Gust Speed -    
Visibility 10 miles    
Events Snow    
Averages and records for this station are not official NWS values.
T = Trace of Precipitation, MM = Missing Value Source: NWS Daily Summary

Daily Weather History Graph

Daily Weather History Graph

Search for Another Location

Airport or City:

Trip Planner

Search our weather history database for the weather conditions in past years. The results will help you decide how hot, cold, wet, or windy it might be!

Date:

Astronomy

Nov. 01, 2013 Rise Set
Actual Time 7:48 AM MDT 6:03 PM MDT
Civil Twilight 7:18 AM MDT 6:33 PM MDT
Nautical Twilight 6:45 AM MDT 7:07 PM MDT
Astronomical Twilight 6:11 AM MDT 7:40 PM MDT
Moon 5:41 AM MDT (11/1) 5:00 PM MDT (11/1)
Length of Visible Light 11h 14m
Length of Day
10h 14m
Waning Crescent, 4% of the Moon is Illuminated
Nov 1
Waning Crescent
Nov 3
New
Nov 9
First Quarter
Nov 17
Full
Nov 25
Last Quarter

Hourly Weather History & Observations

Time (MDT) Temp. Windchill Dew Point Humidity Pressure Visibility Wind Dir Wind Speed Gust Speed Precip Events Conditions
12:15 AM 32.0 °F 20.1 °F 30.2 °F 93% 30.04 in 7.0 mi NNW 19.6 mph - N/A Snow Light Snow
12:35 AM 32.0 °F 19.5 °F 30.2 °F 93% 30.04 in 10.0 mi NNW 21.9 mph - N/A   Overcast
12:55 AM 32.0 °F 18.9 °F 30.2 °F 93% 30.04 in 10.0 mi NNW 24.2 mph - N/A   Overcast
1:15 AM 32.0 °F 19.5 °F 30.2 °F 93% 30.05 in 10.0 mi NNW 21.9 mph - N/A   Overcast
1:35 AM 32.0 °F 19.5 °F 30.2 °F 93% 30.06 in 10.0 mi NNW 21.9 mph - N/A   Overcast
1:55 AM 32.0 °F 18.9 °F 30.2 °F 93% 30.07 in 10.0 mi NW 24.2 mph - N/A   Overcast
2:15 AM 32.0 °F 18.6 °F 30.2 °F 93% 30.07 in 10.0 mi NNW 25.3 mph - N/A   Overcast
2:35 AM 30.2 °F 15.9 °F 28.4 °F 93% 30.07 in 10.0 mi NNW 26.5 mph - N/A   Mostly Cloudy
2:55 AM 30.2 °F 15.9 °F 26.6 °F 86% 30.08 in 10.0 mi NW 26.5 mph - N/A   Mostly Cloudy
3:15 AM 30.2 °F 16.2 °F 26.6 °F 86% 30.09 in 10.0 mi NNW 25.3 mph - N/A   Overcast
3:35 AM 30.2 °F 16.5 °F 24.8 °F 80% 30.10 in 10.0 mi NNW 24.2 mph - N/A   Overcast
3:55 AM 30.2 °F 16.5 °F 23.0 °F 75% 30.10 in 10.0 mi NNW 24.2 mph - N/A   Mostly Cloudy
4:15 AM 30.2 °F 17.4 °F 23.0 °F 75% 30.11 in 10.0 mi NNW 20.7 mph - N/A   Mostly Cloudy
4:35 AM 28.4 °F 16.2 °F 23.0 °F 80% 30.12 in 10.0 mi NNW 17.3 mph - N/A   Scattered Clouds
4:55 AM 28.4 °F 17.5 °F 23.0 °F 80% 30.13 in 10.0 mi NNW 13.8 mph - N/A   Clear
5:15 AM 28.4 °F 19.1 °F 23.0 °F 80% 30.14 in 10.0 mi NNW 10.4 mph - N/A   Clear
5:35 AM 30.2 °F 21.3 °F 21.2 °F 69% 30.15 in 10.0 mi North 10.4 mph - N/A   Scattered Clouds
5:55 AM 30.2 °F 21.9 °F 21.2 °F 69% 30.16 in 10.0 mi NNW 9.2 mph - N/A   Scattered Clouds
6:15 AM 30.2 °F 22.6 °F 21.2 °F 69% 30.16 in 10.0 mi North 8.1 mph - N/A   Mostly Cloudy
6:35 AM 30.2 °F 23.4 °F 21.2 °F 69% 30.18 in 10.0 mi North 6.9 mph - N/A   Mostly Cloudy
6:55 AM 32.0 °F 27.5 °F 21.2 °F 64% 30.18 in 10.0 mi NNE 4.6 mph - N/A   Overcast
7:15 AM 32.0 °F 28.7 °F 21.2 °F 64% 30.19 in 10.0 mi NNE 3.5 mph - N/A   Overcast
7:35 AM 32.0 °F 27.5 °F 21.2 °F 64% 30.20 in 10.0 mi NNW 4.6 mph - N/A   Overcast
7:55 AM 32.0 °F 24.2 °F 19.4 °F 60% 30.20 in 10.0 mi NNW 9.2 mph - N/A   Mostly Cloudy
8:15 AM 30.2 °F 22.6 °F 19.4 °F 64% 30.20 in 10.0 mi North 8.1 mph - N/A   Scattered Clouds
8:35 AM 30.2 °F 21.3 °F 21.2 °F 69% 30.22 in 10.0 mi NNW 10.4 mph - N/A   Scattered Clouds
8:55 AM 32.0 °F 24.2 °F 21.2 °F 64% 30.23 in 10.0 mi NNW 9.2 mph - N/A   Overcast
9:15 AM 32.0 °F 23.0 °F 21.2 °F 64% 30.24 in 10.0 mi North 11.5 mph - N/A   Overcast
9:35 AM 32.0 °F 23.6 °F 21.2 °F 64% 30.25 in 10.0 mi NNW 10.4 mph - N/A   Overcast
9:55 AM 32.0 °F 23.6 °F 21.2 °F 64% 30.26 in 10.0 mi NNW 10.4 mph - N/A   Overcast
10:15 AM 32.0 °F 24.2 °F 21.2 °F 64% 30.26 in 10.0 mi NNW 9.2 mph - N/A   Overcast
10:35 AM 32.0 °F 25.6 °F 21.2 °F 64% 30.26 in 10.0 mi NNW 6.9 mph - N/A   Overcast
10:55 AM 32.0 °F 26.4 °F 21.2 °F 64% 30.27 in 10.0 mi North 5.8 mph - N/A   Mostly Cloudy
11:15 AM 32.0 °F 24.8 °F 21.2 °F 64% 30.27 in 10.0 mi North 8.1 mph - N/A   Scattered Clouds
11:35 AM 32.0 °F 26.4 °F 21.2 °F 64% 30.27 in 10.0 mi North 5.8 mph - N/A   Scattered Clouds
11:55 AM 32.0 °F 27.5 °F 21.2 °F 64% 30.28 in 10.0 mi North 4.6 mph - N/A   Scattered Clouds
12:15 PM 32.0 °F 27.5 °F 21.2 °F 64% 30.28 in 10.0 mi NNE 4.6 mph - N/A   Clear
12:35 PM 33.8 °F 29.6 °F 23.0 °F 65% 30.28 in 10.0 mi ESE 4.6 mph - N/A   Clear
12:55 PM 33.8 °F 30.8 °F 28.4 °F 81% 30.27 in 10.0 mi SSE 3.5 mph - N/A   Scattered Clouds
1:15 PM 33.8 °F 27.7 °F 26.6 °F 75% 30.26 in 10.0 mi ESE 6.9 mph - N/A   Scattered Clouds
1:35 PM 33.8 °F 26.4 °F 26.6 °F 75% 30.26 in 10.0 mi SE 9.2 mph - N/A   Scattered Clouds
1:55 PM 35.6 °F 29.2 °F 26.6 °F 70% 30.25 in 10.0 mi SE 8.1 mph - N/A   Clear
2:15 PM 35.6 °F 29.9 °F 23.0 °F 60% 30.24 in 10.0 mi ESE 6.9 mph - N/A   Clear
2:35 PM 35.6 °F 30.7 °F 23.0 °F 60% 30.24 in 10.0 mi SE 5.8 mph - N/A   Clear
4:15 PM 37.4 °F 32.8 °F 23.0 °F 56% 30.24 in 10.0 mi SE 5.8 mph - N/A   Clear
4:35 PM 37.4 °F 32.1 °F 23.0 °F 56% 30.24 in 10.0 mi SE 6.9 mph - N/A   Clear
4:55 PM 35.6 °F 29.9 °F 23.0 °F 60% 30.24 in 10.0 mi SE 6.9 mph - N/A   Clear
5:15 PM 35.6 °F 29.9 °F 23.0 °F 60% 30.23 in 10.0 mi SSE 6.9 mph - N/A   Clear
5:35 PM 35.6 °F 29.9 °F 23.0 °F 60% 30.23 in 10.0 mi SE 6.9 mph - N/A   Clear
5:55 PM 35.6 °F 29.9 °F 23.0 °F 60% 30.23 in 10.0 mi SSE 6.9 mph - N/A   Clear
6:15 PM 35.6 °F 30.7 °F 23.0 °F 60% 30.23 in 10.0 mi SE 5.8 mph - N/A   Clear
6:35 PM 35.6 °F 29.9 °F 23.0 °F 60% 30.23 in 10.0 mi SE 6.9 mph - N/A   Clear
6:55 PM 35.6 °F 29.2 °F 23.0 °F 60% 30.23 in 10.0 mi SE 8.1 mph - N/A   Clear
7:15 PM 35.6 °F 29.9 °F 23.0 °F 60% 30.23 in 10.0 mi SE 6.9 mph - N/A   Clear
7:35 PM 35.6 °F 29.2 °F 23.0 °F 60% 30.23 in 10.0 mi SE 8.1 mph - N/A   Clear
7:55 PM 35.6 °F 29.9 °F 23.0 °F 60% 30.23 in 10.0 mi SE 6.9 mph - N/A   Clear
8:15 PM 35.6 °F 31.7 °F 23.0 °F 60% 30.24 in 10.0 mi SE 4.6 mph - N/A   Clear
8:35 PM 35.6 °F 31.7 °F 23.0 °F 60% 30.24 in 10.0 mi SSE 4.6 mph - N/A   Clear
8:55 PM 35.6 °F 31.7 °F 23.0 °F 60% 30.24 in 10.0 mi South 4.6 mph - N/A   Clear
9:15 PM 35.6 °F 32.8 °F 23.0 °F 60% 30.24 in 10.0 mi SSE 3.5 mph - N/A   Clear
9:35 PM 35.6 °F - 23.0 °F 60% 30.24 in 10.0 mi Calm Calm - N/A   Clear
9:55 PM 35.6 °F 32.8 °F 23.0 °F 60% 30.24 in 10.0 mi SSE 3.5 mph - N/A   Clear
10:15 PM 35.6 °F 32.8 °F 23.0 °F 60% 30.24 in 10.0 mi SE 3.5 mph - N/A   Clear
10:35 PM 35.6 °F 31.7 °F 23.0 °F 60% 30.24 in 10.0 mi SE 4.6 mph - N/A   Clear
10:55 PM 35.6 °F 30.7 °F 23.0 °F 60% 30.24 in 10.0 mi SE 5.8 mph - N/A   Clear
11:15 PM 35.6 °F 30.7 °F 21.2 °F 56% 30.24 in 10.0 mi ESE 5.8 mph - N/A   Clear
11:35 PM 35.6 °F 29.2 °F 21.2 °F 56% 30.24 in 10.0 mi ESE 8.1 mph - N/A   Clear
11:55 PM 33.8 °F 25.8 °F 23.0 °F 65% 30.24 in 10.0 mi SE 10.4 mph - N/A   Clear